Time,TemperatureF,DewpointF,PressureIn,WindDirection,WindDirectionDegrees,WindSpeedMPH,WindSpeedGustMPH,Humidity,HourlyPrecipIn,Conditions,Clouds,dailyrainin,SoftwareType,DateUTC
2013-02-28 00:00:00,33.1,28.5,29.85,West,260,12.0,17.0,83,0.00,,OVC037,0.05,VWS V14.01,2013-02-28 06:00:00,
2013-02-28 00:05:00,33.1,28.5,29.86,West,269,5.0,13.0,83,0.00,,OVC046,0.00,VWS V14.01,2013-02-28 06:05:00,
2013-02-28 00:10:00,33.1,28.2,29.86,West,279,11.0,18.0,82,0.00,,OVC046,0.00,VWS V14.01,2013-02-28 06:10:00,
2013-02-28 00:15:00,32.9,28.0,29.86,West,266,10.0,12.0,82,0.00,,OVC046,0.00,VWS V14.01,2013-02-28 06:15:00,
2013-02-28 00:20:00,32.9,28.0,29.86,WNW,292,12.0,12.0,82,0.00,,OVC046,0.00,VWS V14.01,2013-02-28 06:20:00,
2013-02-28 00:25:00,32.9,28.0,29.86,West,264,8.0,11.0,82,0.00,,OVC046,0.00,VWS V14.01,2013-02-28 06:25:00,
2013-02-28 00:30:00,32.9,28.0,29.86,WNW,285,5.0,12.0,82,0.00,,OVC046,0.00,VWS V14.01,2013-02-28 06:30:00,
2013-02-28 00:35:00,32.9,28.0,29.86,West,264,8.0,11.0,82,0.00,,OVC046,0.00,VWS V14.01,2013-02-28 06:35:00,
2013-02-28 00:40:00,32.9,28.0,29.86,West,272,6.0,17.0,82,0.00,,OVC046,0.00,VWS V14.01,2013-02-28 06:40:00,
2013-02-28 00:45:00,32.8,27.9,29.86,West,268,11.0,13.0,82,0.00,,OVC048,0.00,VWS V14.01,2013-02-28 06:45:00,
2013-02-28 00:50:00,32.8,27.9,29.86,West,268,10.0,18.0,82,0.00,,OVC048,0.00,VWS V14.01,2013-02-28 06:50:00,
2013-02-28 00:55:00,32.8,27.9,29.86,WNW,284,4.0,9.0,82,0.00,,OVC048,0.00,VWS V14.01,2013-02-28 06:55:00,
2013-02-28 01:00:00,32.8,27.9,29.86,West,278,5.0,12.0,82,0.00,,OVC048,0.00,VWS V14.01,2013-02-28 07:00:00,
2013-02-28 01:05:00,32.9,28.3,29.86,West,260,7.0,10.0,83,0.00,,OVC048,0.00,VWS V14.01,2013-02-28 07:05:00,
2013-02-28 01:10:00,32.9,28.3,29.86,WNW,289,4.0,6.0,83,0.00,,OVC048,0.00,VWS V14.01,2013-02-28 07:10:00,
2013-02-28 01:15:00,32.9,28.3,29.86,West,264,5.0,7.0,83,0.00,,OVC048,0.00,VWS V14.01,2013-02-28 07:15:00,
2013-02-28 01:20:00,32.8,28.2,29.86,WSW,254,5.0,13.0,83,0.00,,OVC048,0.00,VWS V14.01,2013-02-28 07:20:00,
2013-02-28 01:25:00,32.8,28.5,29.86,West,276,9.0,14.0,84,0.00,,OVC039,0.00,VWS V14.01,2013-02-28 07:25:00,
2013-02-28 01:30:00,32.7,28.4,29.86,West,273,5.0,6.0,84,0.00,,OVC039,0.00,VWS V14.01,2013-02-28 07:30:00,
2013-02-28 01:35:00,32.7,28.4,29.86,West,270,11.0,14.0,84,0.00,,OVC039,0.00,VWS V14.01,2013-02-28 07:35:00,
2013-02-28 01:40:00,32.7,28.4,29.86,West,263,3.0,8.0,84,0.00,,OVC039,0.00,VWS V14.01,2013-02-28 07:40:00,
2013-02-28 01:45:00,32.7,28.4,29.86,West,270,8.0,10.0,84,0.00,,OVC039,0.00,VWS V14.01,2013-02-28 07:45:00,
2013-02-28 01:50:00,32.7,28.4,29.86,WSW,251,5.0,12.0,84,0.00,,OVC039,0.00,VWS V14.01,2013-02-28 07:50:00,
2013-02-28 01:55:00,32.5,28.2,29.86,West,269,4.0,9.0,84,0.00,,OVC039,0.00,VWS V14.01,2013-02-28 07:55:00,
2013-02-28 02:00:00,32.5,28.2,29.86,West,268,9.0,9.0,84,0.00,,OVC039,0.00,VWS V14.01,2013-02-28 08:00:00,
2013-02-28 02:05:00,32.7,28.4,29.86,West,267,13.0,13.0,84,0.00,,OVC042,0.00,VWS V14.01,2013-02-28 08:05:00,
2013-02-28 02:10:00,32.5,28.2,29.86,WSW,247,12.0,15.0,84,0.00,,OVC042,0.00,VWS V14.01,2013-02-28 08:10:00,
2013-02-28 02:15:00,32.5,28.2,29.86,West,266,7.0,7.0,84,0.00,,OVC042,0.00,VWS V14.01,2013-02-28 08:15:00,
2013-02-28 02:20:00,32.5,28.2,29.86,WSW,256,9.0,14.0,84,0.00,,OVC042,0.00,VWS V14.01,2013-02-28 08:20:00,
2013-02-28 02:25:00,32.5,28.2,29.86,WSW,243,13.0,16.0,84,0.00,,OVC042,0.00,VWS V14.01,2013-02-28 08:25:00,
2013-02-28 02:30:00,32.7,28.4,29.86,West,280,10.0,12.0,84,0.00,,OVC042,0.00,VWS V14.01,2013-02-28 08:30:00,
2013-02-28 02:35:00,32.7,28.4,29.86,West,272,6.0,12.0,84,0.00,,OVC042,0.00,VWS V14.01,2013-02-28 08:35:00,
2013-02-28 02:40:00,32.7,28.4,29.86,WSW,258,11.0,13.0,84,0.00,,OVC042,0.00,VWS V14.01,2013-02-28 08:40:00,
2013-02-28 02:45:00,32.7,28.4,29.86,WNW,283,7.0,11.0,84,0.00,,OVC042,0.00,VWS V14.01,2013-02-28 08:45:00,
2013-02-28 02:50:00,32.7,28.4,29.86,WNW,283,6.0,11.0,84,0.00,,OVC042,0.00,VWS V14.01,2013-02-28 08:50:00,
2013-02-28 02:55:00,32.7,28.4,29.86,West,259,11.0,15.0,84,0.00,,OVC042,0.00,VWS V14.01,2013-02-28 08:55:00,
2013-02-28 03:00:00,32.8,28.5,29.86,West,280,4.0,8.0,84,0.00,,OVC042,0.00,VWS V14.01,2013-02-28 09:00:00,
2013-02-28 03:05:00,32.8,28.5,29.86,West,262,6.0,12.0,84,0.00,,OVC023,0.00,VWS V14.01,2013-02-28 09:05:00,
2013-02-28 03:10:00,32.8,28.5,29.86,WNW,293,11.0,18.0,84,0.00,,OVC023,0.00,VWS V14.01,2013-02-28 09:10:00,
2013-02-28 03:15:00,32.8,28.5,29.86,WSW,258,11.0,14.0,84,0.00,,OVC023,0.00,VWS V14.01,2013-02-28 09:15:00,
2013-02-28 03:20:00,32.8,28.5,29.86,West,276,14.0,14.0,84,0.00,,OVC023,0.00,VWS V14.01,2013-02-28 09:20:00,
2013-02-28 03:25:00,32.8,28.5,29.87,West,264,9.0,14.0,84,0.00,,OVC023,0.00,VWS V14.01,2013-02-28 09:25:00,
2013-02-28 03:30:00,32.8,28.5,29.87,West,270,16.0,18.0,84,0.00,,OVC023,0.00,VWS V14.01,2013-02-28 09:30:00,
2013-02-28 03:35:00,32.8,28.5,29.87,West,280,12.0,17.0,84,0.00,,OVC023,0.00,VWS V14.01,2013-02-28 09:35:00,
2013-02-28 03:40:00,32.8,28.5,29.87,West,266,14.0,15.0,84,0.00,,OVC023,0.00,VWS V14.01,2013-02-28 09:40:00,
2013-02-28 03:45:00,32.8,28.5,29.87,West,270,12.0,15.0,84,0.00,,OVC023,0.00,VWS V14.01,2013-02-28 09:45:00,
2013-02-28 03:50:00,32.8,28.8,29.87,West,278,11.0,16.0,85,0.00,,OVC023,0.00,VWS V14.01,2013-02-28 09:50:00,
2013-02-28 03:55:00,32.8,28.8,29.87,West,268,9.0,15.0,85,0.00,,OVC023,0.00,VWS V14.01,2013-02-28 09:55:00,
2013-02-28 04:00:00,32.8,28.8,29.88,WNW,287,4.0,14.0,85,0.00,,OVC013,0.00,VWS V14.01,2013-02-28 10:00:00,
2013-02-28 04:05:00,32.8,28.8,29.88,West,278,12.0,12.0,85,0.00,,OVC013,0.00,VWS V14.01,2013-02-28 10:05:00,
2013-02-28 04:10:00,32.8,28.8,29.88,West,280,4.0,8.0,85,0.00,,OVC013,0.00,VWS V14.01,2013-02-28 10:10:00,
2013-02-28 04:15:00,32.8,29.1,29.88,WNW,283,14.0,14.0,86,0.00,,OVC013,0.00,VWS V14.01,2013-02-28 10:15:00,
2013-02-28 04:20:00,32.8,29.1,29.88,WNW,287,9.0,14.0,86,0.00,,OVC013,0.00,VWS V14.01,2013-02-28 10:20:00,
2013-02-28 04:25:00,32.8,29.1,29.88,West,276,10.0,17.0,86,0.00,,OVC013,0.00,VWS V14.01,2013-02-28 10:25:00,
2013-02-28 04:30:00,32.7,29.0,29.89,WNW,284,4.0,18.0,86,0.00,,OVC013,0.00,VWS V14.01,2013-02-28 10:30:00,
2013-02-28 04:35:00,32.7,29.0,29.89,NW,306,4.0,11.0,86,0.00,,OVC013,0.00,VWS V14.01,2013-02-28 10:35:00,
2013-02-28 04:40:00,32.7,29.3,29.89,West,260,10.0,13.0,87,0.00,,OVC013,0.00,VWS V14.01,2013-02-28 10:40:00,
2013-02-28 04:45:00,32.7,29.3,29.89,West,276,12.0,16.0,87,0.00,,OVC013,0.00,VWS V14.01,2013-02-28 10:45:00,
2013-02-28 04:50:00,32.8,29.4,29.89,West,279,6.0,16.0,87,0.00,,OVC013,0.00,VWS V14.01,2013-02-28 10:50:00,
2013-02-28 04:55:00,32.7,29.3,29.89,WNW,283,11.0,18.0,87,0.00,,OVC013,0.00,VWS V14.01,2013-02-28 10:55:00,
2013-02-28 05:00:00,32.7,29.3,29.89,West,275,14.0,14.0,87,0.00,,OVC013,0.00,VWS V14.01,2013-02-28 11:00:00,
2013-02-28 05:05:00,32.7,29.3,29.89,West,274,9.0,12.0,87,0.00,,OVC013,0.00,VWS V14.01,2013-02-28 11:05:00,
2013-02-28 05:10:00,32.5,29.4,29.90,West,276,10.0,10.0,88,0.00,,OVC015,0.00,VWS V14.01,2013-02-28 11:10:00,
2013-02-28 05:15:00,32.5,29.4,29.90,West,272,10.0,14.0,88,0.00,,OVC015,0.00,VWS V14.01,2013-02-28 11:15:00,
2013-02-28 05:20:00,32.5,29.4,29.90,West,278,12.0,12.0,88,0.00,,OVC015,0.00,VWS V14.01,2013-02-28 11:20:00,
2013-02-28 05:25:00,32.5,29.6,29.90,WNW,293,4.0,10.0,89,0.00,,OVC015,0.00,VWS V14.01,2013-02-28 11:25:00,
2013-02-28 05:30:00,32.7,29.8,29.90,West,265,11.0,15.0,89,0.00,,OVC015,0.00,VWS V14.01,2013-02-28 11:30:00,
2013-02-28 05:35:00,32.7,29.8,29.91,West,259,14.0,14.0,89,0.00,,OVC015,0.00,VWS V14.01,2013-02-28 11:35:00,
2013-02-28 05:40:00,32.5,29.6,29.91,West,266,12.0,13.0,89,0.00,,OVC015,0.00,VWS V14.01,2013-02-28 11:40:00,
2013-02-28 05:45:00,32.7,29.8,29.91,WNW,299,3.0,15.0,89,0.00,,OVC015,0.00,VWS V14.01,2013-02-28 11:45:00,
2013-02-28 05:50:00,32.5,29.6,29.90,West,272,11.0,14.0,89,0.00,,OVC015,0.00,VWS V14.01,2013-02-28 11:50:00,
2013-02-28 05:55:00,32.7,29.8,29.91,WNW,299,7.0,12.0,89,0.00,,OVC015,0.00,VWS V14.01,2013-02-28 11:55:00,
2013-02-28 06:00:00,32.7,29.8,29.90,WNW,297,14.0,16.0,89,0.00,,OVC013,0.00,VWS V14.01,2013-02-28 12:00:00,
2013-02-28 06:05:00,32.7,29.8,29.90,WNW,302,2.0,12.0,89,0.00,,OVC013,0.00,VWS V14.01,2013-02-28 12:05:00,
2013-02-28 06:10:00,32.7,29.8,29.91,West,278,10.0,11.0,89,0.00,,OVC013,0.00,VWS V14.01,2013-02-28 12:10:00,
2013-02-28 06:15:00,32.7,29.8,29.91,WNW,291,9.0,11.0,89,0.00,,OVC013,0.00,VWS V14.01,2013-02-28 12:15:00,
2013-02-28 06:20:00,32.5,29.9,29.91,West,276,7.0,16.0,90,0.00,,OVC013,0.00,VWS V14.01,2013-02-28 12:20:00,
2013-02-28 06:25:00,32.7,30.1,29.91,West,273,13.0,17.0,90,0.00,,OVC013,0.00,VWS V14.01,2013-02-28 12:25:00,
2013-02-28 06:30:00,32.5,29.9,29.91,West,281,13.0,14.0,90,0.00,,OVC013,0.00,VWS V14.01,2013-02-28 12:30:00,
2013-02-28 06:35:00,32.5,29.9,29.91,West,274,14.0,15.0,90,0.00,,OVC013,0.00,VWS V14.01,2013-02-28 12:35:00,
2013-02-28 06:40:00,32.5,29.9,29.91,West,264,7.0,13.0,90,0.00,,OVC013,0.00,VWS V14.01,2013-02-28 12:40:00,
2013-02-28 06:45:00,32.5,29.9,29.92,West,272,11.0,17.0,90,0.00,,OVC013,0.00,VWS V14.01,2013-02-28 12:45:00,
2013-02-28 06:50:00,32.7,30.1,29.92,West,278,14.0,18.0,90,0.00,,OVC013,0.00,VWS V14.01,2013-02-28 12:50:00,
2013-02-28 06:55:00,32.7,30.1,29.92,West,272,12.0,12.0,90,0.00,,OVC013,0.00,VWS V14.01,2013-02-28 12:55:00,
2013-02-28 07:00:00,32.7,30.1,29.92,West,268,13.0,14.0,90,0.00,,OVC013,0.00,VWS V14.01,2013-02-28 13:00:00,
2013-02-28 07:05:00,32.7,30.1,29.92,West,278,5.0,13.0,90,0.00,,OVC011,0.00,VWS V14.01,2013-02-28 13:05:00,
2013-02-28 07:10:00,32.7,30.1,29.93,WNW,285,11.0,14.0,90,0.00,,OVC011,0.00,VWS V14.01,2013-02-28 13:10:00,
2013-02-28 07:15:00,32.7,30.1,29.93,West,265,10.0,12.0,90,0.00,,OVC011,0.00,VWS V14.01,2013-02-28 13:15:00,
2013-02-28 07:20:00,32.7,30.1,29.93,West,277,9.0,12.0,90,0.00,,OVC011,0.00,VWS V14.01,2013-02-28 13:20:00,
2013-02-28 07:25:00,32.8,30.2,29.93,WSW,255,13.0,13.0,90,0.00,,OVC011,0.00,VWS V14.01,2013-02-28 13:25:00,
2013-02-28 07:30:00,32.8,30.2,29.94,WNW,284,3.0,6.0,90,0.00,,OVC011,0.00,VWS V14.01,2013-02-28 13:30:00,
2013-02-28 07:35:00,32.8,30.2,29.94,West,264,12.0,12.0,90,0.00,,OVC011,0.00,VWS V14.01,2013-02-28 13:35:00,
2013-02-28 07:40:00,32.8,30.2,29.94,West,269,14.0,15.0,90,0.00,,OVC011,0.00,VWS V14.01,2013-02-28 13:40:00,
2013-02-28 07:45:00,32.9,30.3,29.94,West,270,10.0,10.0,90,0.00,,OVC011,0.00,VWS V14.01,2013-02-28 13:45:00,
2013-02-28 07:50:00,32.9,30.3,29.94,West,281,6.0,7.0,90,0.00,,OVC011,0.00,VWS V14.01,2013-02-28 13:50:00,
2013-02-28 07:55:00,33.1,30.5,29.94,WNW,285,2.0,6.0,90,0.00,,OVC011,0.00,VWS V14.01,2013-02-28 13:55:00,
2013-02-28 08:00:00,33.1,30.5,29.95,West,272,8.0,12.0,90,0.00,,OVC011,0.00,VWS V14.01,2013-02-28 14:00:00,
2013-02-28 08:05:00,33.1,30.2,29.95,WNW,293,11.0,13.0,89,0.00,,OVC011,0.00,VWS V14.01,2013-02-28 14:05:00,
2013-02-28 08:10:00,33.1,30.2,29.95,WNW,285,7.0,9.0,89,0.00,,OVC011,0.00,VWS V14.01,2013-02-28 14:10:00,
2013-02-28 08:15:00,33.2,30.3,29.95,West,269,4.0,12.0,89,0.00,,OVC011,0.00,VWS V14.01,2013-02-28 14:15:00,
2013-02-28 08:20:00,33.2,30.3,29.95,WNW,291,4.0,12.0,89,0.00,,OVC011,0.00,VWS V14.01,2013-02-28 14:20:00,
2013-02-28 08:25:00,33.4,30.5,29.95,West,277,10.0,10.0,89,0.00,,OVC011,0.00,VWS V14.01,2013-02-28 14:25:00,
2013-02-28 08:30:00,33.4,30.5,29.95,West,280,9.0,14.0,89,0.00,,OVC011,0.00,VWS V14.01,2013-02-28 14:30:00,
2013-02-28 08:35:00,33.5,30.3,29.95,West,273,9.0,9.0,88,0.00,,OVC011,0.00,VWS V14.01,2013-02-28 14:35:00,
2013-02-28 08:40:00,33.5,30.3,29.95,West,274,8.0,13.0,88,0.00,,OVC011,0.00,VWS V14.01,2013-02-28 14:40:00,
2013-02-28 08:45:00,33.5,30.3,29.95,WNW,287,4.0,7.0,88,0.00,,OVC011,0.00,VWS V14.01,2013-02-28 14:45:00,
2013-02-28 08:50:00,33.7,30.5,29.95,West,265,10.0,16.0,88,0.00,,OVC011,0.00,VWS V14.01,2013-02-28 14:50:00,
2013-02-28 08:55:00,33.7,30.5,29.95,WNW,287,12.0,15.0,88,0.00,,OVC011,0.00,VWS V14.01,2013-02-28 14:55:00,
2013-02-28 09:00:00,33.8,30.6,29.95,West,281,11.0,14.0,88,0.00,,OVC011,0.00,VWS V14.01,2013-02-28 15:00:00,
2013-02-28 09:05:00,33.8,30.4,29.95,WNW,289,4.0,12.0,87,0.00,,,0.00,VWS V14.01,2013-02-28 15:05:00,
2013-02-28 09:10:00,33.8,30.4,29.95,WNW,291,5.0,14.0,87,0.00,,,0.00,VWS V14.01,2013-02-28 15:10:00,
2013-02-28 09:15:00,33.8,30.4,29.96,WNW,297,7.0,13.0,87,0.00,,,0.00,VWS V14.01,2013-02-28 15:15:00,
2013-02-28 09:20:00,34.0,30.5,29.96,West,273,3.0,5.0,87,0.00,,,0.00,VWS V14.01,2013-02-28 15:20:00,
2013-02-28 09:25:00,34.0,30.5,29.96,West,276,7.0,10.0,87,0.00,,,0.00,VWS V14.01,2013-02-28 15:25:00,
2013-02-28 09:30:00,34.0,30.5,29.96,WNW,287,8.0,13.0,87,0.00,,,0.00,VWS V14.01,2013-02-28 15:30:00,
2013-02-28 09:35:00,34.0,30.5,29.97,West,273,4.0,10.0,87,0.00,,,0.00,VWS V14.01,2013-02-28 15:35:00,
2013-02-28 09:40:00,34.0,30.5,29.97,WNW,293,6.0,17.0,87,0.00,,,0.00,VWS V14.01,2013-02-28 15:40:00,
2013-02-28 09:45:00,34.1,30.6,29.97,WNW,299,6.0,14.0,87,0.00,,,0.00,VWS V14.01,2013-02-28 15:45:00,
2013-02-28 09:50:00,34.1,30.6,29.97,NW,304,14.0,16.0,87,0.00,,,0.00,VWS V14.01,2013-02-28 15:50:00,
2013-02-28 09:55:00,34.1,30.6,29.97,WNW,289,9.0,15.0,87,0.00,,,0.00,VWS V14.01,2013-02-28 15:55:00,
2013-02-28 10:00:00,34.1,30.6,29.97,WNW,294,7.0,15.0,87,0.00,,,0.00,VWS V14.01,2013-02-28 16:00:00,
2013-02-28 10:05:00,34.3,30.8,29.97,West,276,7.0,14.0,87,0.00,,,0.00,VWS V14.01,2013-02-28 16:05:00,
2013-02-28 10:10:00,34.3,30.8,29.97,West,279,5.0,17.0,87,0.00,,,0.00,VWS V14.01,2013-02-28 16:10:00,
2013-02-28 10:15:00,34.4,30.9,29.97,West,272,11.0,11.0,87,0.00,,,0.00,VWS V14.01,2013-02-28 16:15:00,
2013-02-28 10:20:00,34.4,30.9,29.97,WNW,301,10.0,15.0,87,0.00,,,0.00,VWS V14.01,2013-02-28 16:20:00,
2013-02-28 10:25:00,34.4,30.9,29.98,West,279,9.0,13.0,87,0.00,,,0.00,VWS V14.01,2013-02-28 16:25:00,
2013-02-28 10:30:00,34.6,31.1,29.98,WNW,291,9.0,9.0,87,0.00,,,0.00,VWS V14.01,2013-02-28 16:30:00,
2013-02-28 10:35:00,34.6,30.9,29.98,WNW,290,11.0,13.0,86,0.00,,,0.00,VWS V14.01,2013-02-28 16:35:00,
2013-02-28 10:40:00,34.4,30.6,29.99,West,270,9.0,13.0,86,0.00,,,0.00,VWS V14.01,2013-02-28 16:40:00,
2013-02-28 10:45:00,34.4,30.6,29.99,WNW,291,11.0,12.0,86,0.00,,,0.00,VWS V14.01,2013-02-28 16:45:00,
2013-02-28 10:50:00,34.6,30.9,29.99,WNW,291,7.0,8.0,86,0.00,,,0.00,VWS V14.01,2013-02-28 16:50:00,
2013-02-28 10:55:00,34.7,31.0,29.99,WNW,289,6.0,13.0,86,0.00,,,0.00,VWS V14.01,2013-02-28 16:55:00,
2013-02-28 11:00:00,34.7,31.0,29.99,WNW,302,12.0,14.0,86,0.00,,,0.00,VWS V14.01,2013-02-28 17:00:00,
2013-02-28 11:05:00,34.7,31.0,29.99,WNW,300,10.0,12.0,86,0.00,,OVC017,0.00,VWS V14.01,2013-02-28 17:05:00,
2013-02-28 11:10:00,34.7,31.0,29.99,WNW,287,10.0,14.0,86,0.00,,OVC017,0.00,VWS V14.01,2013-02-28 17:10:00,
2013-02-28 11:15:00,34.9,31.1,29.99,WNW,285,4.0,13.0,86,0.00,,OVC017,0.00,VWS V14.01,2013-02-28 17:15:00,
2013-02-28 11:20:00,34.9,31.1,29.99,West,278,9.0,10.0,86,0.00,,OVC017,0.00,VWS V14.01,2013-02-28 17:20:00,
2013-02-28 11:25:00,35.0,31.2,29.99,WNW,294,6.0,12.0,86,0.00,,OVC017,0.00,VWS V14.01,2013-02-28 17:25:00,
2013-02-28 11:30:00,35.2,31.4,29.99,West,278,5.0,9.0,86,0.00,,OVC017,0.00,VWS V14.01,2013-02-28 17:30:00,
2013-02-28 11:35:00,35.0,31.2,29.99,WNW,283,9.0,10.0,86,0.00,,OVC017,0.00,VWS V14.01,2013-02-28 17:35:00,
2013-02-28 11:40:00,35.2,31.4,29.99,WNW,299,3.0,9.0,86,0.00,,OVC017,0.00,VWS V14.01,2013-02-28 17:40:00,
2013-02-28 11:45:00,35.3,31.5,29.99,WNW,295,10.0,10.0,86,0.00,,OVC017,0.00,VWS V14.01,2013-02-28 17:45:00,
2013-02-28 11:50:00,35.2,31.4,29.99,WNW,284,6.0,9.0,86,0.00,,OVC017,0.00,VWS V14.01,2013-02-28 17:50:00,
2013-02-28 11:55:00,35.3,31.5,29.99,West,269,8.0,13.0,86,0.00,,OVC017,0.00,VWS V14.01,2013-02-28 17:55:00,
2013-02-28 12:00:00,35.2,31.7,29.99,West,274,6.0,11.0,87,0.00,,OVC017,0.00,VWS V14.01,2013-02-28 18:00:00,
2013-02-28 12:05:00,35.2,31.7,29.99,West,280,10.0,15.0,87,0.00,,OVC017,0.00,VWS V14.01,2013-02-28 18:05:00,
2013-02-28 12:10:00,35.2,31.7,29.99,WNW,301,7.0,7.0,87,0.00,,OVC017,0.00,VWS V14.01,2013-02-28 18:10:00,
2013-02-28 12:15:00,35.2,31.7,29.99,West,278,11.0,12.0,87,0.00,,OVC017,0.00,VWS V14.01,2013-02-28 18:15:00,
2013-02-28 12:20:00,35.2,31.7,29.99,WNW,287,6.0,7.0,87,0.00,,OVC017,0.00,VWS V14.01,2013-02-28 18:20:00,
2013-02-28 12:25:00,35.3,31.8,29.99,NW,308,6.0,9.0,87,0.00,,OVC017,0.00,VWS V14.01,2013-02-28 18:25:00,
2013-02-28 12:30:00,35.3,31.8,29.99,West,278,5.0,18.0,87,0.00,,OVC017,0.00,VWS V14.01,2013-02-28 18:30:00,
2013-02-28 12:35:00,35.5,32.0,29.99,West,280,14.0,18.0,87,0.00,,OVC017,0.00,VWS V14.01,2013-02-28 18:35:00,
2013-02-28 12:40:00,35.5,31.7,29.99,WNW,295,12.0,15.0,86,0.00,,OVC017,0.00,VWS V14.01,2013-02-28 18:40:00,
2013-02-28 12:45:00,35.6,31.8,29.99,WNW,299,5.0,12.0,86,0.00,,OVC017,0.00,VWS V14.01,2013-02-28 18:45:00,
2013-02-28 12:50:00,35.8,32.0,29.99,WNW,299,11.0,11.0,86,0.00,,OVC017,0.00,VWS V14.01,2013-02-28 18:50:00,
2013-02-28 12:55:00,35.8,32.0,29.99,WNW,293,4.0,17.0,86,0.00,,OVC017,0.00,VWS V14.01,2013-02-28 18:55:00,
2013-02-28 13:00:00,35.8,32.0,29.99,NW,308,11.0,15.0,86,0.00,,OVC017,0.00,VWS V14.01,2013-02-28 19:00:00,
2013-02-28 13:05:00,35.8,32.0,29.99,WNW,295,11.0,15.0,86,0.00,,OVC017,0.00,VWS V14.01,2013-02-28 19:05:00,
2013-02-28 13:10:00,35.8,31.7,29.99,WNW,302,11.0,14.0,85,0.00,,OVC017,0.00,VWS V14.01,2013-02-28 19:10:00,
2013-02-28 13:15:00,35.9,31.8,29.99,NW,306,5.0,15.0,85,0.00,,OVC017,0.00,VWS V14.01,2013-02-28 19:15:00,
2013-02-28 13:20:00,35.9,31.8,29.99,NW,307,12.0,17.0,85,0.00,,OVC017,0.00,VWS V14.01,2013-02-28 19:20:00,
2013-02-28 13:25:00,36.0,31.9,29.99,NW,304,12.0,12.0,85,0.00,,OVC017,0.00,VWS V14.01,2013-02-28 19:25:00,
2013-02-28 13:30:00,36.0,31.9,29.99,West,279,14.0,15.0,85,0.00,,OVC017,0.00,VWS V14.01,2013-02-28 19:30:00,
2013-02-28 13:35:00,36.0,31.9,29.99,WNW,294,6.0,11.0,85,0.00,,OVC017,0.00,VWS V14.01,2013-02-28 19:35:00,
2013-02-28 13:40:00,36.0,31.9,29.99,WNW,285,12.0,15.0,85,0.00,,OVC017,0.00,VWS V14.01,2013-02-28 19:40:00,
2013-02-28 13:45:00,36.0,31.9,29.99,NW,312,12.0,12.0,85,0.00,,OVC017,0.00,VWS V14.01,2013-02-28 19:45:00,
2013-02-28 13:50:00,36.2,32.1,29.99,NW,305,6.0,10.0,85,0.00,,OVC017,0.00,VWS V14.01,2013-02-28 19:50:00,
2013-02-28 13:55:00,36.2,32.4,29.99,WNW,295,5.0,7.0,86,0.00,,OVC017,0.00,VWS V14.01,2013-02-28 19:55:00,
2013-02-28 14:00:00,36.2,32.1,29.99,WNW,287,5.0,15.0,85,0.00,,OVC017,0.00,VWS V14.01,2013-02-28 20:00:00,
2013-02-28 14:05:00,36.2,32.4,30.00,WNW,300,12.0,13.0,86,0.00,,OVC015,0.00,VWS V14.01,2013-02-28 20:05:00,
2013-02-28 14:10:00,36.2,32.4,30.00,WNW,293,4.0,15.0,86,0.00,,OVC015,0.00,VWS V14.01,2013-02-28 20:10:00,
2013-02-28 14:15:00,36.2,32.4,30.00,WNW,292,6.0,9.0,86,0.00,,OVC015,0.00,VWS V14.01,2013-02-28 20:15:00,
2013-02-28 14:20:00,36.2,32.1,30.00,WNW,295,5.0,9.0,85,0.00,,OVC015,0.00,VWS V14.01,2013-02-28 20:20:00,
2013-02-28 14:25:00,36.2,32.1,30.00,WNW,290,6.0,6.0,85,0.00,,OVC015,0.00,VWS V14.01,2013-02-28 20:25:00,
2013-02-28 14:30:00,36.3,32.2,30.00,WNW,295,7.0,13.0,85,0.00,,OVC015,0.00,VWS V14.01,2013-02-28 20:30:00,
2013-02-28 14:35:00,36.3,31.9,30.00,WNW,296,10.0,13.0,84,0.00,,OVC015,0.00,VWS V14.01,2013-02-28 20:35:00,
2013-02-28 14:40:00,36.3,31.9,30.00,WNW,287,9.0,19.0,84,0.00,,OVC015,0.00,VWS V14.01,2013-02-28 20:40:00,
2013-02-28 14:45:00,36.3,31.9,30.00,WNW,293,5.0,12.0,84,0.00,,OVC015,0.00,VWS V14.01,2013-02-28 20:45:00,
2013-02-28 14:50:00,36.3,31.6,30.01,West,272,7.0,7.0,83,0.00,,OVC015,0.00,VWS V14.01,2013-02-28 20:50:00,
2013-02-28 14:55:00,36.5,32.1,30.01,West,272,7.0,15.0,84,0.00,,OVC015,0.00,VWS V14.01,2013-02-28 20:55:00,
2013-02-28 15:00:00,36.5,31.8,30.01,WNW,297,5.0,10.0,83,0.00,,OVC015,0.00,VWS V14.01,2013-02-28 21:00:00,
2013-02-28 15:05:00,36.3,31.6,30.01,West,280,13.0,20.0,83,0.00,,OVC015,0.00,VWS V14.01,2013-02-28 21:05:00,
2013-02-28 15:10:00,36.5,31.8,30.02,WNW,296,5.0,5.0,83,0.00,,OVC015,0.00,VWS V14.01,2013-02-28 21:10:00,
2013-02-28 15:15:00,36.5,31.8,30.02,WNW,291,7.0,14.0,83,0.00,,OVC015,0.00,VWS V14.01,2013-02-28 21:15:00,
2013-02-28 15:20:00,36.5,31.8,30.02,NW,310,3.0,6.0,83,0.00,,OVC015,0.00,VWS V14.01,2013-02-28 21:20:00,
2013-02-28 15:25:00,36.6,31.9,30.02,WNW,293,15.0,15.0,83,0.00,,OVC013,0.00,VWS V14.01,2013-02-28 21:25:00,
2013-02-28 15:30:00,36.5,31.8,30.02,WNW,295,5.0,10.0,83,0.00,,OVC013,0.00,VWS V14.01,2013-02-28 21:30:00,
2013-02-28 15:35:00,36.3,31.9,30.02,West,279,13.0,13.0,84,0.00,,OVC013,0.00,VWS V14.01,2013-02-28 21:35:00,
2013-02-28 15:40:00,36.3,31.9,30.03,WNW,301,11.0,13.0,84,0.00,,OVC013,0.00,VWS V14.01,2013-02-28 21:40:00,
2013-02-28 15:45:00,36.3,31.9,30.03,NW,305,4.0,14.0,84,0.00,,OVC013,0.00,VWS V14.01,2013-02-28 21:45:00,
2013-02-28 15:50:00,36.3,31.9,30.03,NW,304,7.0,13.0,84,0.00,,OVC013,0.00,VWS V14.01,2013-02-28 21:50:00,
2013-02-28 15:55:00,36.2,31.8,30.03,WNW,299,8.0,14.0,84,0.00,,OVC013,0.00,VWS V14.01,2013-02-28 21:55:00,
2013-02-28 16:00:00,36.2,31.8,30.03,West,264,10.0,11.0,84,0.00,,OVC013,0.00,VWS V14.01,2013-02-28 22:00:00,
2013-02-28 16:05:00,36.2,31.8,30.03,NW,310,7.0,9.0,84,0.00,,OVC015,0.00,VWS V14.01,2013-02-28 22:05:00,
2013-02-28 16:10:00,36.3,31.9,30.03,WNW,300,3.0,10.0,84,0.00,,OVC015,0.00,VWS V14.01,2013-02-28 22:10:00,
2013-02-28 16:15:00,36.2,31.8,30.03,NW,308,2.0,7.0,84,0.00,,OVC015,0.00,VWS V14.01,2013-02-28 22:15:00,
2013-02-28 16:20:00,36.3,31.9,30.03,WNW,303,5.0,7.0,84,0.00,,OVC015,0.00,VWS V14.01,2013-02-28 22:20:00,
2013-02-28 16:25:00,36.2,31.8,30.04,WNW,295,6.0,13.0,84,0.00,,OVC013,0.00,VWS V14.01,2013-02-28 22:25:00,
2013-02-28 16:30:00,36.2,31.8,30.04,WNW,299,4.0,10.0,84,0.00,,OVC013,0.00,VWS V14.01,2013-02-28 22:30:00,
2013-02-28 16:35:00,36.2,31.8,30.04,WNW,300,6.0,14.0,84,0.00,,OVC013,0.00,VWS V14.01,2013-02-28 22:35:00,
2013-02-28 16:40:00,36.2,31.8,30.04,NW,313,6.0,11.0,84,0.00,,OVC013,0.00,VWS V14.01,2013-02-28 22:40:00,
2013-02-28 16:45:00,36.2,31.8,30.04,NW,308,4.0,7.0,84,0.00,,OVC013,0.00,VWS V14.01,2013-02-28 22:45:00,
2013-02-28 16:50:00,36.2,31.8,30.05,NW,308,6.0,14.0,84,0.00,,OVC013,0.00,VWS V14.01,2013-02-28 22:50:00,
2013-02-28 16:55:00,36.2,31.8,30.05,WNW,287,5.0,7.0,84,0.00,,OVC013,0.00,VWS V14.01,2013-02-28 22:55:00,
2013-02-28 17:00:00,36.2,31.8,30.05,West,276,6.0,10.0,84,0.00,,OVC013,0.00,VWS V14.01,2013-02-28 23:00:00,
2013-02-28 17:05:00,36.2,31.8,30.05,West,272,10.0,11.0,84,0.00,,OVC015,0.00,VWS V14.01,2013-02-28 23:05:00,
2013-02-28 17:10:00,36.0,31.6,30.05,WNW,298,4.0,6.0,84,0.00,,OVC015,0.00,VWS V14.01,2013-02-28 23:10:00,
2013-02-28 17:15:00,36.0,31.6,30.05,WNW,298,3.0,10.0,84,0.00,,OVC015,0.00,VWS V14.01,2013-02-28 23:15:00,
2013-02-28 17:20:00,36.0,31.6,30.05,WNW,300,4.0,5.0,84,0.00,,OVC015,0.00,VWS V14.01,2013-02-28 23:20:00,
2013-02-28 17:25:00,36.0,31.6,30.05,WNW,301,2.0,5.0,84,0.00,,OVC015,0.00,VWS V14.01,2013-02-28 23:25:00,
2013-02-28 17:30:00,36.0,31.9,30.05,WNW,293,3.0,5.0,85,0.00,,OVC015,0.00,VWS V14.01,2013-02-28 23:30:00,
2013-02-28 17:35:00,36.0,31.9,30.05,WNW,293,3.0,11.0,85,0.00,,OVC015,0.00,VWS V14.01,2013-02-28 23:35:00,
2013-02-28 17:40:00,36.0,31.9,30.05,WNW,298,7.0,7.0,85,0.00,,OVC015,0.00,VWS V14.01,2013-02-28 23:40:00,
2013-02-28 17:45:00,36.0,31.9,30.05,West,279,5.0,7.0,85,0.00,,OVC015,0.00,VWS V14.01,2013-02-28 23:45:00,
2013-02-28 17:50:00,36.0,31.9,30.05,WNW,303,11.0,11.0,85,0.00,,OVC015,0.00,VWS V14.01,2013-02-28 23:50:00,
2013-02-28 17:55:00,36.0,31.9,30.06,WNW,295,4.0,7.0,85,0.00,,OVC015,0.00,VWS V14.01,2013-02-28 23:55:00,
2013-02-28 18:00:00,36.0,31.9,30.06,WNW,296,0.0,2.0,85,0.00,,OVC015,0.00,VWS V14.01,2013-03-01 00:00:00,
2013-02-28 18:05:00,36.0,31.9,30.06,WNW,283,3.0,9.0,85,0.00,,OVC019,0.00,VWS V14.01,2013-03-01 00:05:00,
2013-02-28 18:10:00,35.9,31.8,30.05,WNW,295,5.0,10.0,85,0.00,,OVC019,0.00,VWS V14.01,2013-03-01 00:10:00,
2013-02-28 18:15:00,35.9,31.8,30.05,WNW,298,2.0,6.0,85,0.00,,OVC019,0.00,VWS V14.01,2013-03-01 00:15:00,
2013-02-28 18:20:00,35.9,31.8,30.05,WNW,298,7.0,9.0,85,0.00,,OVC019,0.00,VWS V14.01,2013-03-01 00:20:00,
2013-02-28 18:25:00,35.9,31.8,30.05,WNW,301,4.0,10.0,85,0.00,,OVC019,0.00,VWS V14.01,2013-03-01 00:25:00,
2013-02-28 18:30:00,35.9,31.8,30.06,NW,308,4.0,11.0,85,0.00,,OVC019,0.00,VWS V14.01,2013-03-01 00:30:00,
2013-02-28 18:35:00,35.9,31.5,30.06,WNW,301,4.0,7.0,84,0.00,,OVC019,0.00,VWS V14.01,2013-03-01 00:35:00,
2013-02-28 18:40:00,35.9,31.5,30.06,WNW,299,14.0,15.0,84,0.00,,OVC019,0.00,VWS V14.01,2013-03-01 00:40:00,
2013-02-28 18:45:00,35.9,31.5,30.06,NW,310,10.0,13.0,84,0.00,,OVC019,0.00,VWS V14.01,2013-03-01 00:45:00,
2013-02-28 18:50:00,35.9,31.5,30.06,WNW,294,12.0,16.0,84,0.00,,OVC019,0.00,VWS V14.01,2013-03-01 00:50:00,
2013-02-28 18:55:00,35.9,31.5,30.06,NW,310,3.0,11.0,84,0.00,,OVC019,0.00,VWS V14.01,2013-03-01 00:55:00,
2013-02-28 19:00:00,35.8,31.5,30.06,WNW,300,4.0,9.0,84,0.00,,OVC019,0.00,VWS V14.01,2013-03-01 01:00:00,
2013-02-28 19:05:00,35.8,31.7,30.06,NW,305,11.0,11.0,85,0.00,,,0.00,VWS V14.01,2013-03-01 01:05:00,
2013-02-28 19:10:00,35.8,31.7,30.06,WNW,297,6.0,6.0,85,0.00,,,0.00,VWS V14.01,2013-03-01 01:10:00,
2013-02-28 19:15:00,35.8,31.7,30.06,WNW,300,2.0,8.0,85,0.00,,,0.00,VWS V14.01,2013-03-01 01:15:00,
2013-02-28 19:20:00,35.8,31.7,30.06,WNW,293,2.0,9.0,85,0.00,,,0.00,VWS V14.01,2013-03-01 01:20:00,
2013-02-28 19:25:00,35.8,31.7,30.06,WNW,303,7.0,13.0,85,0.00,,,0.00,VWS V14.01,2013-03-01 01:25:00,
2013-02-28 19:30:00,35.8,32.0,30.06,WNW,301,10.0,10.0,86,0.00,,,0.00,VWS V14.01,2013-03-01 01:30:00,
2013-02-28 19:35:00,35.8,32.0,30.06,WNW,284,3.0,4.0,86,0.00,,,0.00,VWS V14.01,2013-03-01 01:35:00,
2013-02-28 19:40:00,35.8,32.0,30.06,WNW,301,6.0,6.0,86,0.00,,,0.00,VWS V14.01,2013-03-01 01:40:00,
2013-02-28 19:45:00,35.6,31.8,30.06,NW,307,5.0,10.0,86,0.00,,,0.00,VWS V14.01,2013-03-01 01:45:00,
2013-02-28 19:50:00,35.6,31.8,30.06,NW,316,1.0,8.0,86,0.00,,,0.00,VWS V14.01,2013-03-01 01:50:00,
2013-02-28 19:55:00,35.6,31.8,30.06,WNW,295,5.0,7.0,86,0.00,,,0.00,VWS V14.01,2013-03-01 01:55:00,
2013-02-28 20:00:00,35.6,31.8,30.06,NW,309,4.0,10.0,86,0.00,,,0.00,VWS V14.01,2013-03-01 02:00:00,
2013-02-28 20:05:00,35.6,31.8,30.06,NW,307,2.0,7.0,86,0.00,,,0.00,VWS V14.01,2013-03-01 02:05:00,
2013-02-28 20:10:00,35.6,31.8,30.06,WNW,301,8.0,8.0,86,0.00,,,0.00,VWS V14.01,2013-03-01 02:10:00,
2013-02-28 20:15:00,35.6,31.8,30.06,WNW,300,5.0,7.0,86,0.00,,,0.00,VWS V14.01,2013-03-01 02:15:00,
2013-02-28 20:20:00,35.6,31.8,30.06,NW,304,3.0,5.0,86,0.00,,,0.00,VWS V14.01,2013-03-01 02:20:00,
2013-02-28 20:25:00,35.6,31.8,30.06,WNW,303,9.0,11.0,86,0.00,,,0.00,VWS V14.01,2013-03-01 02:25:00,
2013-02-28 20:30:00,35.5,31.7,30.06,NW,308,6.0,7.0,86,0.00,,,0.00,VWS V14.01,2013-03-01 02:30:00,
2013-02-28 20:35:00,35.5,31.7,30.07,WNW,303,9.0,11.0,86,0.00,,,0.00,VWS V14.01,2013-03-01 02:35:00,
2013-02-28 20:40:00,35.5,31.7,30.07,NW,305,4.0,11.0,86,0.00,,,0.00,VWS V14.01,2013-03-01 02:40:00,
2013-02-28 20:45:00,35.5,31.7,30.07,WNW,295,4.0,5.0,86,0.00,,,0.00,VWS V14.01,2013-03-01 02:45:00,
2013-02-28 20:50:00,35.5,31.7,30.07,WNW,291,2.0,6.0,86,0.00,,,0.00,VWS V14.01,2013-03-01 02:50:00,
2013-02-28 20:55:00,35.5,32.0,30.07,WNW,298,6.0,7.0,87,0.00,,,0.00,VWS V14.01,2013-03-01 02:55:00,
2013-02-28 21:00:00,35.5,32.0,30.07,WNW,293,5.0,5.0,87,0.00,,,0.00,VWS V14.01,2013-03-01 03:00:00,
2013-02-28 21:05:00,35.5,32.0,30.08,WNW,282,4.0,5.0,87,0.00,,,0.00,VWS V14.01,2013-03-01 03:05:00,
2013-02-28 21:10:00,35.5,32.0,30.08,WNW,295,6.0,9.0,87,0.00,,,0.00,VWS V14.01,2013-03-01 03:10:00,
2013-02-28 21:15:00,35.5,32.0,30.08,WNW,295,5.0,6.0,87,0.00,,,0.00,VWS V14.01,2013-03-01 03:15:00,
2013-02-28 21:20:00,35.3,31.8,30.08,West,280,5.0,9.0,87,0.00,,,0.00,VWS V14.01,2013-03-01 03:20:00,
2013-02-28 21:25:00,35.3,31.8,30.08,WNW,300,3.0,6.0,87,0.00,,,0.00,VWS V14.01,2013-03-01 03:25:00,
2013-02-28 21:30:00,35.3,31.8,30.08,WNW,300,4.0,7.0,87,0.00,,,0.00,VWS V14.01,2013-03-01 03:30:00,
2013-02-28 21:35:00,35.3,31.8,30.08,WNW,300,3.0,6.0,87,0.00,,,0.00,VWS V14.01,2013-03-01 03:35:00,
2013-02-28 21:40:00,35.2,31.7,30.08,WNW,301,5.0,5.0,87,0.00,,,0.00,VWS V14.01,2013-03-01 03:40:00,
2013-02-28 21:45:00,35.2,32.0,30.08,WNW,301,5.0,6.0,88,0.00,,,0.00,VWS V14.01,2013-03-01 03:45:00,
2013-02-28 21:50:00,35.2,32.0,30.08,WNW,301,7.0,9.0,88,0.00,,,0.00,VWS V14.01,2013-03-01 03:50:00,
2013-02-28 21:55:00,35.2,32.0,30.08,WNW,301,2.0,3.0,88,0.00,,,0.00,VWS V14.01,2013-03-01 03:55:00,
2013-02-28 22:00:00,35.2,32.0,30.08,NW,305,3.0,6.0,88,0.00,,,0.00,VWS V14.01,2013-03-01 04:00:00,
2013-02-28 22:05:00,35.2,32.0,30.08,WNW,301,3.0,6.0,88,0.00,,,0.00,VWS V14.01,2013-03-01 04:05:00,
2013-02-28 22:10:00,35.0,31.8,30.08,NW,316,11.0,11.0,88,0.00,,,0.00,VWS V14.01,2013-03-01 04:10:00,
2013-02-28 22:15:00,35.0,31.8,30.08,NW,308,5.0,6.0,88,0.00,,,0.00,VWS V14.01,2013-03-01 04:15:00,
2013-02-28 22:20:00,35.0,31.8,30.07,NW,306,9.0,9.0,88,0.00,,,0.00,VWS V14.01,2013-03-01 04:20:00,
2013-02-28 22:25:00,35.0,31.8,30.07,WNW,299,1.0,7.0,88,0.00,,,0.00,VWS V14.01,2013-03-01 04:25:00,
2013-02-28 22:30:00,34.9,31.7,30.07,WNW,303,0.0,7.0,88,0.00,,,0.00,VWS V14.01,2013-03-01 04:30:00,
2013-02-28 22:35:00,34.9,31.7,30.07,NW,308,4.0,7.0,88,0.00,,,0.00,VWS V14.01,2013-03-01 04:35:00,
2013-02-28 22:40:00,34.7,31.5,30.07,WNW,303,6.0,7.0,88,0.00,,,0.00,VWS V14.01,2013-03-01 04:40:00,
2013-02-28 22:45:00,34.6,31.7,30.07,WNW,303,1.0,6.0,89,0.00,,,0.00,VWS V14.01,2013-03-01 04:45:00,
2013-02-28 22:50:00,34.4,31.5,30.07,WNW,302,0.0,4.0,89,0.00,,,0.00,VWS V14.01,2013-03-01 04:50:00,
2013-02-28 22:55:00,34.4,31.8,30.06,WNW,302,3.0,4.0,90,0.00,,,0.00,VWS V14.01,2013-03-01 04:55:00,
2013-02-28 23:00:00,34.4,31.8,30.06,NW,304,5.0,5.0,90,0.00,,,0.00,VWS V14.01,2013-03-01 05:00:00,
2013-02-28 23:05:00,34.4,31.8,30.06,WNW,303,6.0,6.0,90,0.00,,,0.00,VWS V14.01,2013-03-01 05:05:00,
2013-02-28 23:06:00,34.4,31.8,30.06,WNW,303,5.0,6.0,90,0.00,,,0.00,VWS V14.01,2013-03-01 05:06:00,
2013-02-28 23:11:00,34.4,31.8,30.06,NW,307,3.0,5.0,90,0.00,,,0.00,VWS V14.01,2013-03-01 05:11:00,
2013-02-28 23:16:00,34.4,32.0,30.06,NW,307,1.0,5.0,91,0.00,,,0.00,VWS V14.01,2013-03-01 05:16:00,
2013-02-28 23:21:00,34.4,32.0,30.06,NW,307,0.0,2.0,91,0.00,,,0.00,VWS V14.01,2013-03-01 05:21:00,
2013-02-28 23:26:00,34.4,32.0,30.06,NW,307,2.0,4.0,91,0.00,,,0.00,VWS V14.01,2013-03-01 05:26:00,
2013-02-28 23:31:00,34.4,32.0,30.06,NW,307,7.0,7.0,91,0.00,,,0.00,VWS V14.01,2013-03-01 05:31:00,
2013-02-28 23:36:00,34.4,32.0,30.06,WNW,303,6.0,7.0,91,0.00,,,0.00,VWS V14.01,2013-03-01 05:36:00,
2013-02-28 23:41:00,34.4,32.0,30.06,WNW,303,5.0,6.0,91,0.00,,,0.00,VWS V14.01,2013-03-01 05:41:00,
2013-02-28 23:46:00,34.4,32.0,30.05,WNW,303,2.0,5.0,91,0.00,,,0.00,VWS V14.01,2013-03-01 05:46:00,
2013-02-28 23:51:00,34.4,32.0,30.05,WNW,303,4.0,6.0,91,0.00,,,0.00,VWS V14.01,2013-03-01 05:51:00,
2013-02-28 23:56:00,34.4,32.0,30.05,WNW,303,4.0,4.0,91,0.00,,,0.00,VWS V14.01,2013-03-01 05:56:00,